Location: Paris
(48.6709°N, 2.3750°E)
Time: 06:33:21
(UTC+02:00)

ZACube-1 - Pass Details

Date: 04 July 2022
Orbit: 582 x 661 km, 97.6° (Epoch: 09 August)

Event Time Altitude Azimuth Distance (km) Brightness Sun altitude
Rises 05:04:02 0° 22° (NNE) 2,961 ? -6.9°
Reaches altitude 10° 05:06:28 10° 33° (NNE) 2,057 ? -6.7°
Maximum altitude 05:10:26 30° 95° (E) 1,165 ? -6.2°
Drops below altitude 10° 05:14:26 10° 157° (SSE) 2,069 ? -5.7°
Sets 05:16:53 0° 168° (SSE) 2,980 ? -5.5°
